This is the latest recevied weather packets stored in our database for station/object KGRR-WX. If no packets are shown the sender has not sent any weather packets the latest 10 day(s).
| Time | Temp. | Humidity | Pressure | Rain* | Wind** | Luminosity | Snow |
|---|---|---|---|---|---|---|---|
| 1777330824 | 16.67° C | 84% | 977.5 hPa | 0 mm | - | - | - |
| 1777329909 | 16.67° C | 78% | 977.9 hPa | 0 mm | - | - | - |
| 1777329020 | 16.11° C | 86% | 979 hPa | 0 mm | - | - | - |
| 1777328106 | 15.56° C | 86% | 979 hPa | 0 mm | - | - | - |
| 1777327222 | 16.11° C | 86% | 979 hPa | 0 mm | - | - | - |
| 1777326308 | 16.11° C | 91% | 980 hPa | 2.03 mm | - | - | - |
| 1777325419 | 16.67° C | 76% | 980.5 hPa | 2.29 mm | - | - | - |
| 1777324508 | 16.11° C | 76% | 980.5 hPa | 2.29 mm | - | - | - |
| 1777323622 | 16.67° C | 76% | 980.5 hPa | 2.29 mm | - | - | - |
| 1777322708 | 18.33° C | 55% | 980.8 hPa | 0.51 mm | - | - | - |
| 1777321814 | 18.89° C | 61% | 982.2 hPa | 0.51 mm | - | - | - |
| 1777320907 | 20.56° C | 61% | 982.2 hPa | 0 mm | - | - | - |
| 1777320016 | 20° C | 49% | 981.6 hPa | 0 mm | - | - | - |
| 1777319107 | 19.44° C | 43% | 980.9 hPa | 0 mm | - | - | - |
| 1777318220 | 21.11° C | 43% | 980.9 hPa | 0 mm | - | - | - |
| 1777317307 | 21.67° C | 43% | 981 hPa | 0 mm | - | - | - |
| 1777316424 | 21.67° C | 43% | 981 hPa | 0 mm | - | - | - |
| 1777315507 | 22.22° C | 47% | 984.3 hPa | 0 mm | - | - | - |
| 1777314613 | 22.22° C | 46% | 982.8 hPa | 0 mm | - | - | - |
| 1777313707 | 21.67° C | 46% | 982.8 hPa | 0 mm | - | - | - |
| 1777312824 | 21.67° C | 46% | 982.8 hPa | 0 mm | - | - | - |
| 1777311906 | 21.67° C | 48% | 985.2 hPa | 0 mm | - | - | - |
| 1777311021 | 21.11° C | 49% | 984.7 hPa | 0 mm | - | - | - |
| 1777310106 | 20.56° C | 49% | 984.6 hPa | 0 mm | - | - | - |
| 1777309222 | 20.56° C | 49% | 984.6 hPa | 0 mm | - | - | - |
* Rain latest hour (hover to see other rain measurements)
** Current wind speed in m/s (hover to see current wind gust speed)